Location: Bluff Heights
(33.7692°N, 118.1592°W)
Time: 19:26:35
(UTC+00:00)

First-Move - Pass Details

Date: 03 October 2021
Orbit: 574 x 666 km, 97.6° (Epoch: 17 October)

Event Time Altitude Azimuth Distance (km) Brightness Sun altitude
Rises 13:14:54 0° 355° (N) 2,817 ? -7.9°
Reaches altitude 10° 13:17:27 10° 340° (NNW) 1,902 ? -7.3°
Maximum altitude 13:20:35 22° 290° (WNW) 1,299 ? -6.7°
Drops below altitude 10° 13:23:41 10° 239° (WSW) 1,878 ? -6.0°
Sets 13:26:11 0° 224° (SW) 2,770 ? -5.5°
